Simultaneous Nadir Overpasses (SNOs) Predictions

Prediction of SNOs between GOES-15 and METOP-B Satellite Orbit:

Table of predicted SNOs for the next 14.0 days since TLE Epoch: 2/22/2020
Index Date Time (GOES-15) GOES-15 Lat,Lon METOP-B Lat,Lon Distance(km) Time Diff (sec)
1 02/22/2020 06:23:13 -0.15,-128.42 -1.10,-132.69 486.66 80
2 02/23/2020 05:59:55 -0.12,-128.42 0.05,-127.70 82.37 80
3 02/24/2020 18:21:26 0.16,-128.46 1.03,-132.25 432.14 80
4 02/25/2020 17:58:08 0.14,-128.47 -0.11,-127.26 136.72 80
5 02/27/2020 06:19:48 -0.18,-128.44 -0.93,-131.85 388.88 80
6 02/28/2020 05:56:29 -0.15,-128.44 0.21,-126.87 179.78 80
7 02/29/2020 18:18:01 0.19,-128.47 0.87,-131.41 335.68 80
8 03/01/2020 17:54:42 0.16,-128.47 -0.28,-126.43 232.50 80
9 03/03/2020 06:16:23 -0.19,-128.43 -0.76,-131.02 294.52 80
10 03/04/2020 05:53:04 -0.16,-128.43 0.39,-126.03 273.22 80
11 03/05/2020 18:14:35 0.20,-128.45 0.70,-130.58 243.79 80
12 03/06/2020 17:51:17 0.17,-128.44 -0.45,-125.60 323.58 80




NCC Satellite Simultaneous Nadir Overpasses (SNOs) Prediction Service
